Weather History for Springfield, VT

Change the Weather History Date:

Sunday, November 10, 2013

  Actual Average Record
Temperature  
Mean Temperature 38 °F 39 °F  
Max Temperature 46 °F 49 °F 67 °F (2011)
Min Temperature 29 °F 30 °F 12 °F (2004)
Degree Days  
Heating Degree Days 27 26  
Month to date heating degree days 251 242  
Since 1 July heating degree days 1026 1051  
Moisture  
Dew Point 33 °F    
Average Humidity 83    
Maximum Humidity 100    
Minimum Humidity 65    
Precipitation  
Precipitation 0.04 in 0.13 in 0.82 in (2000)
Month to date precipitation 0.88 1.38  
Year to date precipitation 33.32 37.93  
Sea Level Pressure  
Sea Level Pressure 29.84 in    
Wind  
Wind Speed 2 mph (West)    
Max Wind Speed 17 mph    
Max Gust Speed 26 mph    
Visibility 10 miles    
Events Rain    
T = Trace of Precipitation, MM = Missing Value Source: NWS Daily Summary

Daily Weather History Graph

Daily Weather History Graph

Search for Another Location

Airport:

Trip Planner

Search our weather history database for the weather conditions in past years. The results will help you decide how hot, cold, wet, or windy it might be!

Date:

Astronomy

Nov. 10, 2013 Rise Set
Actual Time 6:37 AM EST 4:30 PM EST
Civil Twilight 6:06 AM EST 5:00 PM EST
Nautical Twilight 5:32 AM EST 5:34 PM EST
Astronomical Twilight 4:58 AM EST 6:08 PM EST
Moon 12:45 PM EST (11/10) No Moon Set
Length of Visible Light 10h 53m
Length of Day
9h 53m
First Quarter, 55% of the Moon is Illuminated
Nov 10
First Quarter
Nov 17
Full
Nov 25
Last Quarter
Dec 2
New
Dec 9
First Quarter

Hourly Weather History & Observations

Time (EST) Temp. Windchill Dew Point Humidity Pressure Visibility Wind Dir Wind Speed Gust Speed Precip Events Conditions
12:54 AM 36.0 °F - 30.0 °F 79% 29.96 in 10.0 mi Calm Calm - 0.00 in   Overcast
1:54 AM 35.1 °F - 30.9 °F 85% 29.93 in 10.0 mi Calm Calm - 0.00 in   Overcast
2:54 AM 35.1 °F - 32.0 °F 89% 29.91 in 10.0 mi Calm Calm - N/A   Overcast
3:54 AM 35.1 °F - 32.0 °F 89% 29.89 in 10.0 mi Calm Calm - 0.00 in   Overcast
4:32 AM 33.8 °F - 32.0 °F 93% 29.86 in 10.0 mi Calm Calm - 0.00 in   Overcast
4:45 AM 33.8 °F - 32.0 °F 93% 29.85 in 10.0 mi Calm Calm - 0.00 in   Mostly Cloudy
4:54 AM 33.1 °F - 32.0 °F 96% 29.87 in 10.0 mi Calm Calm - 0.00 in   Scattered Clouds
5:12 AM 33.8 °F - 32.0 °F 93% 29.85 in 10.0 mi Calm Calm - N/A   Mostly Cloudy
5:25 AM 32.0 °F - 30.2 °F 93% 29.84 in 10.0 mi Calm Calm - N/A   Overcast
5:54 AM 32.0 °F - 30.9 °F 96% 29.85 in 10.0 mi Calm Calm - N/A   Mostly Cloudy
6:54 AM 30.0 °F - 28.9 °F 96% 29.85 in 5.0 mi Calm Calm - N/A   Scattered Clouds
7:54 AM 32.0 °F - 30.9 °F 96% 29.86 in 8.0 mi Calm Calm - N/A   Overcast
8:54 AM 34.0 °F - 33.1 °F 96% 29.85 in 9.0 mi Calm Calm - 0.00 in   Overcast
9:54 AM 36.0 °F - 34.0 °F 93% 29.82 in 9.0 mi Calm Calm - N/A   Mostly Cloudy
10:54 AM 39.9 °F - 34.0 °F 79% 29.79 in 10.0 mi Calm Calm - N/A   Partly Cloudy
11:54 AM 42.1 °F - 35.1 °F 76% 29.76 in 10.0 mi Calm Calm - N/A   Mostly Cloudy
12:54 PM 43.0 °F - 37.0 °F 80% 29.76 in 10.0 mi Calm Calm - 0.00 in Rain Light Rain
1:54 PM 46.0 °F 43.9 °F 37.0 °F 71% 29.75 in 10.0 mi Variable 4.6 mph - 0.00 in   Mostly Cloudy
2:54 PM 45.0 °F 41.2 °F 34.0 °F 65% 29.75 in 10.0 mi WSW 6.9 mph - N/A   Overcast
3:54 PM 43.0 °F 40.3 °F 36.0 °F 76% 29.78 in 10.0 mi West 4.6 mph - 0.00 in Rain Light Rain
4:54 PM 41.0 °F - 37.0 °F 86% 29.80 in 10.0 mi Calm Calm - 0.02 in Rain Light Rain
5:54 PM 39.9 °F - 37.9 °F 93% 29.80 in 10.0 mi Calm Calm - 0.00 in   Overcast
6:54 PM 39.0 °F - 37.0 °F 93% 29.80 in 10.0 mi Calm Calm - N/A   Overcast
7:54 PM 42.1 °F 38.4 °F 34.0 °F 73% 29.81 in 10.0 mi WSW 5.8 mph - 0.00 in   Overcast
8:54 PM 42.1 °F 36.6 °F 32.0 °F 67% 29.82 in 10.0 mi West 9.2 mph - 0.00 in   Overcast
9:54 PM 39.9 °F 36.7 °F 33.1 °F 77% 29.84 in 10.0 mi NW 4.6 mph - 0.01 in Rain Light Rain
10:54 PM 39.0 °F 31.4 °F 30.0 °F 70% 29.86 in 10.0 mi West 12.7 mph 19.6 mph 0.01 in   Overcast
11:54 PM 39.0 °F 32.3 °F 28.0 °F 65% 29.90 in 10.0 mi WNW 10.4 mph 21.9 mph 0.00 in Rain Light Rain